"Pseudo-MPEC" for P22pvNY

Created 2026 Sep 1 20:35:05 UT using Find_Orb

Click here for an explanation of pseudo-MPECs

 
 Astrometry: 
     P22pvNY*0C2026 08 31.53878122 46 24.231+28 53 06.44   ~8VEo 20.49wXNEOCPF52
     P22pvNY 0C2026 08 31.54958022 46 24.786+28 53 06.46   ~8VEo 20.39wXNEOCPF52
     P22pvNY 0C2026 08 31.56048522 46 25.430+28 53 06.16   ~8VEo 20.74wXNEOCPF52
     P22pvNY 0C2026 08 31.57137522 46 26.074+28 53 06.03   ~8VEo 20.55wXNEOCPF52
     P22pvNY 0C2026 08 31.62615022 46 30.026+28 53 00.28   ~8VI5 19.67GVNEOCPF52
     P22pvNY 0C2026 08 31.62678322 46 30.122+28 53 00.10   ~8VI5 21.55GVNEOCPF52
     P22pvNY KB2026 08 31.81050 22 47 07.36 +28 53 00.9    ~8VKK       ZNEOCP106
     P22pvNY KB2026 08 31.81750 22 47 07.89 +28 53 04.6    ~8VKK 20.4 VZNEOCP106
     P22pvNY KB2026 08 31.82405 22 47 08.36 +28 53 07.9    ~8VKK 20.6 VZNEOCP106
     P22pvNY 0B2026 09 01.04876522 47 21.673+28 54 16.96   ~91D5       WNEOCP204
     P22pvNY 7B2026 09 01.06491822 47 23.670+28 54 44.76   ~91JZ 20.4 GXNEOCPZ84
     P22pvNY 7B2026 09 01.07576222 47 24.183+28 54 45.70   ~91JZ 20.6 GXNEOCPZ84
     P22pvNY 0B2026 09 01.10713022 47 25.154+28 54 19.40   ~91D5 20.5 GWNEOCP204
     P22pvNY KC2026 09 01.11471122 47 38.56 +28 54 33.7    ~913Z 20.3 GVNEOCPH21
     P22pvNY KC2026 09 01.13195622 47 39.58 +28 54 41.9    ~913Z 20.8 GVNEOCPH21
     P22pvNY KB2026 09 01.79464322 48 42.84 +28 56 11.9    ~91K5 20.5 VZNEOCP106
     P22pvNY KB2026 09 01.80338722 48 43.35 +28 56 14.8    ~91K5 20.7 VZNEOCP106
     P22pvNY KB2026 09 01.81213022 48 43.92 +28 56 17.6    ~91K5 20.6 VZNEOCP106
     P22pvNY KB2026 09 01.82102322 48 44.39 +28 56 22.2    ~91K5 20.4 VZNEOCP106

Station data:
(106) Črni Vrh  (N45.945905 E14.071100)  Slovenia.  Observer J. Skvarč. 0.6-m
   f/3.3 Deltagraph + CCD.
(204) Schiaparelli Observatory  (N45.868292 E8.769720)  Italy.  Observer L.
   Buzzi. 0.84-m f/3.5 reflector + CCD.
(F52) Pan-STARRS 2, Haleakala  (N20.707382 W156.255910)  US/Hawaii.
   Observers J. Herman, T. Lowe, P. Minguez, A. Schultz, I. Smith. Measurers
   K. Chambers, T. de Boer, J. Fairlamb, H. Gao, M. Huber, C.-C. Lin, E.
   Magnier, Y. Ramanjooloo, R. Wainscoat, R. Weryk. 1.8-m Ritchey-Chrétien +
   CCD.
(H21) Astronomical Research Observatory, Westfield  (N39.483054 W87.968270)
   US/Illinois.  Observer R. Holmes. Measurers S. Foglia, L. Buzzi, T.
   Linder, R. Holmes. 0.40-m f/5.32 astrograph + CCD.
(Z84) Calar Alto-Schmidt  (N37.224006 W2.548160)  Spain.  Observer F. Ocaña.
   Measurers F. Ocaña, M. Micheli, R. Kresken. 0.8-m f/3 Schmidt + CCD.

Orbital elements:  P22pvNY
   Perihelion 2026 Jul 22.658720 +/- 0.0122 TT = 15:48:33.4 (JD 2461244.158720)
Epoch 2026 Sep  1.0 TT = JDT 2461284.5   Earth MOID: 0.0009      AutoNEOCP
M  20.967343685 +/- 0.09            (J2000 ecliptic)
n   0.519749095 +/- 0.00231         Peri.  326.500146 +/- 0.10
a   1.532052169 +/- 0.00454         Node   326.587949 +/- 0.06
e   0.36810444 +/- 0.00219          Incl.    7.865428 +/- 0.042
P   1.896/692.629d         H 25.28  G  0.15   U  8.7
q 0.968096962 +/- 0.0005    Q 2.096007376 +/- 0.00957
From 19 observations 2026 Aug. 31-Sept. 1 (30.8 hr); mean residual 0".34
Residuals in arcseconds: 
260831 F52  .15+  .09-    260831 106  .16+  .48+    260901 H21  .28+  .44+    
260831 F52  .26-  .13-    260831 106  .04+  .35+    260901 106  .55+  .29+    
260831 F52  .01-  .22-    260901 204  .45-  .07-    260901 106  .12-  .39-    
260831 F52  .22-  .13+    260901 Z84  .40-  .00     260901 106  .26+  1.1-    
260831 F52  .08-  .04+    260901 Z84  .25-  .02-    260901 106  .52-  .06+    
260831 F52  .50+  .05-    260901 204  .19-  .24+    
260831 106  .10+  .50+    260901 H21  .42+  .44+    

Ephemerides (geocentric):
Date (UTC) HH   RA             Dec           delta  r     elong  mag " sig PA
---- --------  ------------   ------------  ------ ------ -----  --- --------
2026 09 01 21  22 48 43.159   +28 57 29.52  .06103 1.0584 142.8 20.8 .223 131
2026 09 01 22  22 48 46.811   +28 57 34.80  .06123 1.0585 142.9 20.8 .230 131
2026 09 01 23  22 48 50.438   +28 57 39.91  .06144 1.0587 142.9 20.8 .237 130
2026 09 02 00  22 48 54.039   +28 57 44.83  .06165 1.0589 142.9 20.8 .244 130
2026 09 02 01  22 48 57.616   +28 57 49.59  .06185 1.0590 142.9 20.8 .250 130
2026 09 02 02  22 49 01.168   +28 57 54.16  .06206 1.0592 142.9 20.8 .257 130
2026 09 02 03  22 49 04.695   +28 57 58.57  .06226 1.0594 142.9 20.8 .263 130
2026 09 02 04  22 49 08.199   +28 58 02.80  .06247 1.0596 142.9 20.8 .269 131
2026 09 02 05  22 49 11.678   +28 58 06.87  .06268 1.0597 143.0 20.8 .274 131
2026 09 02 06  22 49 15.134   +28 58 10.76  .06288 1.0599 143.0 20.8 .280 131
2026 09 02 07  22 49 18.566   +28 58 14.49  .06309 1.0601 143.0 20.8 .285 131
2026 09 02 08  22 49 21.975   +28 58 18.05  .06329 1.0602 143.0 20.9 .290 131
2026 09 02 09  22 49 25.361   +28 58 21.44  .06350 1.0604 143.0 20.9 .295 131
2026 09 02 10  22 49 28.725   +28 58 24.67  .06371 1.0606 143.0 20.9 .300 131
2026 09 02 11  22 49 32.065   +28 58 27.74  .06391 1.0607 143.1 20.9 .305 132
2026 09 02 12  22 49 35.384   +28 58 30.65  .06412 1.0609 143.1 20.9 .309 132
2026 09 02 13  22 49 38.680   +28 58 33.39  .06432 1.0611 143.1 20.9 .313 132
2026 09 02 14  22 49 41.954   +28 58 35.98  .06453 1.0612 143.1 20.9 .318 132
2026 09 02 15  22 49 45.206   +28 58 38.41  .06474 1.0614 143.1 20.9 .322 133
2026 09 02 16  22 49 48.437   +28 58 40.68  .06494 1.0616 143.1 20.9 .325 133
2026 09 02 17  22 49 51.646   +28 58 42.80  .06515 1.0617 143.1 20.9 .329 133
2026 09 02 18  22 49 54.835   +28 58 44.76  .06536 1.0619 143.2 20.9 .332 133
2026 09 02 19  22 49 58.002   +28 58 46.56  .06556 1.0621 143.2 20.9 .336 134
2026 09 02 20  22 50 01.149   +28 58 48.22  .06577 1.0623 143.2 20.9 .339 134
2026 09 02 21  22 50 04.275   +28 58 49.72  .06598 1.0624 143.2 20.9 .342 134
2026 09 02 22  22 50 07.381   +28 58 51.07  .06618 1.0626 143.2 20.9 .345 135
2026 09 02 23  22 50 10.466   +28 58 52.27  .06639 1.0628 143.2 21.0 .348 135
2026 09 03 00  22 50 13.532   +28 58 53.33  .06659 1.0629 143.3 21.0 .350 135
2026 09 03 01  22 50 16.578   +28 58 54.23  .06680 1.0631 143.3 21.0 .353 136
2026 09 03 02  22 50 19.604   +28 58 54.99  .06701 1.0633 143.3 21.0 .355 136
2026 09 03 03  22 50 22.611   +28 58 55.60  .06721 1.0635 143.3 21.0 .358 136
2026 09 03 04  22 50 25.598   +28 58 56.07  .06742 1.0636 143.3 21.0 .360 137
2026 09 03 05  22 50 28.566   +28 58 56.40  .06763 1.0638 143.3 21.0 .362 137
2026 09 03 06  22 50 31.516   +28 58 56.58  .06783 1.0640 143.3 21.0 .364 138
2026 09 03 07  22 50 34.447   +28 58 56.62  .06804 1.0641 143.4 21.0 .366 138
2026 09 03 08  22 50 37.359   +28 58 56.51  .06825 1.0643 143.4 21.0 .368 138
2026 09 03 09  22 50 40.252   +28 58 56.27  .06845 1.0645 143.4 21.0 .369 139
2026 09 03 10  22 50 43.128   +28 58 55.89  .06866 1.0646 143.4 21.0 .371 139
2026 09 03 11  22 50 45.985   +28 58 55.37  .06887 1.0648 143.4 21.0 .372 140
2026 09 03 12  22 50 48.825   +28 58 54.71  .06908 1.0650 143.4 21.0 .374 140
2026 09 03 13  22 50 51.647   +28 58 53.92  .06928 1.0652 143.5 21.0 .375 141
2026 09 03 14  22 50 54.451   +28 58 52.99  .06949 1.0653 143.5 21.0 .376 141
2026 09 03 15  22 50 57.238   +28 58 51.93  .06970 1.0655 143.5 21.1 .377 142
2026 09 03 16  22 51 00.007   +28 58 50.73  .06990 1.0657 143.5 21.1 .378 142
2026 09 03 17  22 51 02.759   +28 58 49.40  .07011 1.0659 143.5 21.1 .379 142
2026 09 03 18  22 51 05.495   +28 58 47.93  .07032 1.0660 143.5 21.1 .380 143
2026 09 03 19  22 51 08.213   +28 58 46.34  .07052 1.0662 143.6 21.1 .380 143
2026 09 03 20  22 51 10.915   +28 58 44.61  .07073 1.0664 143.6 21.1 .381 144